Wind_Speed
10 10 11 11 12 13 13 15 16 16 16 16 16 15 16 17 17 18 18 19 19 20 20 20 20 20 21 21 21 22 22 21 21 20 20 20 21 22 24 24 25 26
10 10 11 11 12 13 14 15 16 17 17 17 17 16 16 17 18 18 19 19 20 20 21 21 21 21 21 21 21 22 22 22 22 22 22 22 22 23 24 24 24 24
10 10 11 12 13 14 15 16 17 17 17 18 18 17 17 18 19 19 20 20 20 21 22 22 22 22 22 22 22 23 23 23 24 23 23 23 23 24 24 24 24 24
10 10 11 12 13 15 16 17 17 18 18 18 19 19 19 19 20 21 22 22 22 22 23 23 23 24 24 24 24 24 24 24 25 25 24 24 25 25 25 26 26 25
10 11 12 13 14 15 17 17 18 18 19 19 20 21 21 21 22 23 23 24 24 24 25 25 25 25 25 26 26 26 26 26 26 26 26 25 25 26 26 27 27 27
11 12 13 14 15 16 17 18 18 18 19 20 21 22 23 23 23 24 25 25 26 26 26 26 27 26 27 27 27 28 28 28 27 27 27 27 26 27 28 28 28 28
12 12 13 15 16 17 17 17 18 19 20 21 22 23 24 24 25 25 26 27 27 28 28 28 28 28 28 29 29 29 29 30 29 28 28 28 28 28 29 29 30 30
13 13 14 15 16 16 17 17 18 19 21 22 23 24 25 26 26 27 28 28 29 29 29 29 30 30 30 30 30 31 31 31 31 30 29 29 30 30 31 31 31 31
13 13 14 14 15 16 17 18 19 20 22 23 24 25 26 27 28 28 29 29 30 30 30 31 31 32 32 32 32 32 33 33 33 33 32 31 31 32 33 33 33 33
12 13 13 14 15 16 18 19 20 22 23 24 25 26 27 27 28 29 29 30 31 31 32 33 33 34 34 34 34 34 34 34 34 34 35 35 34 34 35 35 35 34
12 12 13 14 15 16 18 19 20 22 23 24 25 26 27 28 29 29 30 31 32 32 33 34 35 35 35 34 35 35 35 35 35 35 36 37 38 38 37 37 36 35
12 12 13 14 15 16 17 19 20 22 23 25 26 27 28 29 30 30 31 31 32 32 33 34 34 34 34 35 35 35 36 37 37 38 38 38 39 39 39 38 36 35
12 13 13 14 15 16 18 19 21 23 24 26 27 28 29 29 30 30 31 31 32 32 33 33 34 35 35 35 36 36 37 37 38 38 38 38 38 38 38 37 36 35
13 14 14 14 16 17 19 21 22 24 25 26 28 28 29 30 30 31 31 32 33 33 34 35 36 36 36 36 36 36 37 37 37 37 37 37 37 36 36 35 35 34
14 15 15 16 17 18 20 22 23 25 26 27 28 29 30 30 31 31 32 33 33 34 35 36 36 37 38 38 38 38 38 38 37 37 37 37 37 36 35 34 33 33
15 16 16 17 18 19 21 23 24 26 27 28 29 29 30 30 31 31 32 32 33 33 34 35 35 36 37 38 39 39 39 39 39 39 38 38 37 37 36 34 33 32
16 17 17 18 19 20 22 23 25 26 27 28 28 28 28 29 29 30 30 30 31 31 32 33 33 34 35 35 37 37 38 38 39 39 39 38 38 37 37 36 34 32
17 17 17 18 19 20 22 23 24 25 26 26 26 26 26 26 26 26 26 27 27 27 28 28 29 30 31 31 33 34 34 36 37 37 38 38 37 37 37 36 35 33
16 17 17 18 19 20 21 22 23 23 24 24 24 23 22 22 22 22 22 22 22 23 23 24 25 25 27 28 29 30 31 32 33 35 36 37 37 36 36 36 35 34
16 16 16 17 19 19 20 20 20 21 20 20 19 18 18 18 18 18 19 19 20 21 22 23 24 24 25 26 27 28 29 30 31 32 34 35 36 36 36 35 35 34
14 15 16 16 17 17 17 17 17 16 15 15 14 14 15 16 17 18 18 19 20 22 23 23 24 25 26 27 27 28 29 30 30 31 32 33 34 35 36 35 35 34
13 13 14 14 14 14 14 13 13 12 12 12 13 14 15 16 17 18 19 21 22 23 24 24 25 26 27 28 28 28 29 30 30 30 31 32 33 34 35 35 35 34
11 11 11 11 11 11 10 10 10 10 11 12 13 15 16 17 19 21 22 24 25 25 26 27 28 28 29 29 29 29 29 29 30 30 31 32 33 34 34 35 35 35
8 8 8 8 8 7 7 8 9 10 11 13 15 17 19 20 22 24 25 26 27 28 29 30 31 31 31 31 31 31 31 31 32 32 31 31 31 32 33 34 34 33
5 5 5 5 5 5 6 8 10 12 14 16 18 19 21 23 25 25 26 27 28 30 31 32 33 33 33 34 34 34 34 34 34 34 33 32 30 30 31 32 32 32
3 4 4 4 4 5 8 10 12 14 16 18 19 21 22 24 25 25 27 28 29 31 31 32 33 34 35 36 36 36 36 36 36 35 34 34 33 32 32 32 31 31
Wind_Direction
284 288 291 294 296 297 299 301 301 300 299 299 301 305 310 316 320 323 325 327 327 328 328 329 330 331 332 332 331 331 330 328 325 320 315 310 305 302 300 298 296 294
285 289 291 294 295 296 298 299 299 299 299 300 301 304 309 314 318 320 323 325 325 325 325 325 326 327 328 328 328 328 328 326 324 321 318 314 311 307 304 301 298 296
283 286 289 291 292 294 296 298 299 298 298 300 301 302 305 309 313 315 318 320 321 320 320 321 321 322 322 322 323 323 324 324 323 322 320 317 313 309 306 303 300 296
276 281 284 287 290 294 297 299 299 298 297 298 299 299 301 303 306 309 311 313 315 316 316 316 317 317 317 318 318 318 318 318 318 319 319 318 315 312 308 304 301 298
273 279 284 289 293 297 299 299 299 298 297 297 297 298 298 300 302 303 305 307 309 310 311 312 312 312 313 313 313 314 314 313 314 314 315 315 315 314 312 308 304 300
276 283 288 293 296 298 299 299 299 297 297 297 297 298 298 299 301 302 303 304 305 306 307 307 308 308 309 309 309 310 310 310 310 310 310 311 312 312 312 311 309 306
283 288 291 294 296 299 300 300 300 298 298 298 298 299 300 301 302 303 304 304 304 304 304 304 305 305 306 306 307 306 306 306 306 306 307 308 309 310 310 309 309 309
283 287 291 295 298 300 301 300 301 301 301 302 302 302 303 303 304 305 305 305 305 305 305 305 304 304 304 304 304 304 304 304 304 304 304 304 306 307 307 308 308 308
280 286 292 297 299 301 301 301 302 303 305 305 305 305 305 305 305 306 306 306 306 306 305 305 305 304 304 303 303 302 302 302 302 303 303 303 303 304 305 306 306 306
282 289 294 298 299 301 302 303 304 305 306 306 306 306 306 306 306 305 305 305 305 305 304 304 304 304 304 304 303 303 302 301 301 301 301 301 302 302 302 303 303 303
284 289 294 296 300 302 303 305 306 306 307 306 307 307 306 305 305 304 304 303 303 303 303 303 303 304 304 304 304 303 303 302 301 300 300 300 300 301 301 301 300 299
283 288 293 296 300 303 303 305 306 306 307 307 307 307 306 305 304 304 303 303 302 302 302 302 302 302 303 302 302 302 301 301 300 300 300 300 300 300 300 300 299 297
282 287 292 295 298 301 302 304 305 306 308 308 308 308 307 306 306 305 305 304 303 303 302 302 301 301 301 300 300 300 300 300 300 300 300 300 300 300 300 300 299 297
282 286 288 292 296 299 301 304 305 307 307 308 308 307 307 307 306 306 305 305 304 304 304 304 303 303 302 302 301 300 300 299 299 299 299 299 299 299 300 300 299 298
282 285 288 293 296 300 303 305 306 307 308 308 308 308 308 308 308 308 308 308 308 308 307 307 307 306 305 304 303 302 302 301 300 300 300 299 299 299 299 300 298 298
283 286 290 295 299 302 304 306 308 309 309 310 310 310 311 311 312 312 312 311 311 310 310 310 309 309 308 307 306 305 304 303 302 301 300 299 299 298 297 298 297 296
285 289 294 298 302 305 307 309 311 312 312 313 313 314 315 315 315 315 314 314 314 313 314 313 313 312 311 310 309 308 307 305 303 302 301 300 298 297 295 295 295 294
288 293 298 303 307 310 312 314 315 316 316 317 318 319 319 319 319 319 319 319 320 320 320 320 319 318 318 316 315 313 312 310 307 305 303 302 300 298 296 294 293 292
292 297 303 309 313 316 319 320 320 321 321 322 323 324 325 326 327 328 330 330 331 332 331 331 331 330 329 327 325 323 321 318 315 312 309 307 304 301 298 296 293 291
296 304 310 316 320 323 324 325 325 326 327 329 331 333 336 339 341 343 344 345 345 345 344 344 343 342 340 339 336 334 331 328 325 321 317 314 310 307 303 300 297 293
305 314 320 324 326 327 328 330 332 334 337 340 344 348 351 354 355 356 357 357 357 356 355 353 351 349 348 346 344 342 339 336 333 329 325 321 317 313 309 306 303 300
318 324 328 329 331 333 337 341 343 347 351 355 360 4 7 8 8 9 8 8 7 5 2 0 358 356 353 350 348 346 343 341 338 335 331 327 324 321 316 312 308 305
329 332 334 336 341 347 351 354 356 2 7 12 18 20 20 20 19 18 16 14 13 10 8 6 4 1 358 355 352 349 347 345 343 340 338 334 331 328 324 320 315 310
337 341 346 353 0 2 3 6 13 22 27 30 31 29 27 26 24 22 20 17 15 13 11 9 6 3 1 358 356 353 351 349 347 345 343 339 335 332 329 326 323 318
355 7 16 20 19 16 24 33 37 39 39 37 35 32 30 27 25 22 20 18 16 14 12 9 7 4 2 0 358 356 354 351 349 347 344 341 339 336 333 330 327 323
52 55 52 44 40 48 52 51 47 43 40 37 34 31 30 27 25 22 20 18 17 14 12 10 7 5 4 1 359 356 354 352 349 347 345 344 342 339 335 331 327 323
Height
3149 3149 3148 3148 3147 3147 3146 3146 3146 3145 3144 3144 3143 3142 3141 3140 3139 3137 3136 3135 3134 3132 3131 3129 3128 3127 3125 3124 3122 3121 3119 3118 3116 3115 3114 3113 3112 3111 3110 3109 3108 3106
3147 3147 3146 3146 3146 3146 3146 3145 3145 3144 3143 3142 3141 3140 3139 3138 3137 3136 3135 3134 3132 3131 3130 3128 3127 3126 3125 3123 3122 3120 3118 3116 3115 3114 3112 3111 3110 3109 3108 3106 3105 3104
3146 3145 3145 3145 3145 3145 3145 3144 3143 3142 3141 3141 3140 3139 3138 3136 3135 3134 3133 3132 3131 3129 3128 3127 3126 3124 3123 3122 3120 3118 3117 3115 3113 3112 3111 3109 3108 3107 3105 3104 3103 3102
3145 3145 3144 3144 3144 3144 3143 3142 3141 3141 3140 3139 3138 3137 3136 3135 3134 3132 3131 3130 3129 3128 3126 3125 3124 3123 3121 3120 3118 3117 3115 3113 3112 3110 3109 3107 3106 3104 3103 3101 3100 3099
3143 3143 3143 3143 3142 3142 3141 3140 3140 3139 3138 3137 3136 3135 3134 3133 3132 3130 3129 3128 3126 3125 3124 3123 3122 3120 3119 3117 3116 3114 3113 3111 3110 3108 3107 3105 3104 3102 3100 3099 3097 3096
3142 3142 3141 3141 3140 3140 3139 3139 3138 3137 3136 3135 3134 3133 3132 3131 3130 3128 3127 3125 3124 3123 3121 3120 3119 3118 3116 3115 3113 3112 3110 3109 3107 3106 3104 3103 3101 3100 3098 3096 3094 3093
3140 3140 3140 3139 3138 3138 3138 3137 3136 3135 3134 3133 3132 3131 3130 3129 3127 3126 3124 3123 3121 3120 3119 3117 3116 3115 3113 3112 3111 3109 3107 3105 3104 3103 3101 3100 3098 3097 3095 3093 3091 3090
3138 3138 3138 3137 3137 3136 3136 3135 3134 3133 3132 3131 3130 3129 3127 3126 3125 3123 3122 3120 3119 3117 3116 3115 3113 3112 3110 3109 3108 3106 3104 3102 3101 3099 3098 3097 3095 3093 3092 3090 3088 3086
3136 3136 3136 3135 3135 3134 3133 3133 3132 3131 3130 3129 3128 3126 3125 3124 3122 3121 3119 3118 3116 3115 3113 3112 3110 3108 3107 3105 3104 3102 3101 3099 3097 3095 3094 3093 3092 3090 3088 3086 3085 3083
3135 3134 3133 3133 3132 3132 3131 3130 3130 3129 3128 3126 3125 3124 3123 3121 3120 3118 3117 3115 3114 3112 3110 3109 3107 3105 3104 3102 3100 3098 3097 3095 3094 3092 3090 3089 3087 3086 3084 3083 3081 3080
3132 3132 3131 3130 3130 3129 3129 3128 3127 3126 3125 3124 3123 3122 3120 3119 3117 3116 3114 3113 3111 3109 3107 3106 3104 3102 3100 3098 3096 3094 3092 3091 3089 3088 3086 3084 3083 3081 3080 3078 3077 3075
3130 3130 3129 3128 3128 3127 3127 3126 3125 3124 3123 3122 3121 3119 3118 3116 3115 3113 3111 3110 3108 3106 3104 3102 3100 3099 3097 3095 3093 3091 3089 3087 3085 3083 3082 3080 3078 3076 3075 3073 3072 3071
3128 3128 3127 3127 3126 3126 3125 3124 3123 3122 3121 3119 3118 3116 3115 3113 3112 3110 3108 3107 3105 3103 3101 3099 3097 3095 3093 3092 3089 3087 3085 3083 3081 3079 3077 3075 3073 3071 3070 3068 3067 3066
3126 3125 3125 3125 3124 3124 3123 3122 3121 3120 3118 3117 3115 3114 3112 3111 3109 3107 3105 3103 3101 3099 3097 3095 3093 3091 3089 3087 3085 3083 3081 3079 3077 3075 3073 3071 3069 3067 3066 3064 3062 3061
3124 3123 3123 3123 3122 3122 3121 3120 3119 3117 3116 3114 3113 3111 3109 3108 3106 3104 3102 3100 3098 3095 3093 3091 3088 3086 3084 3082 3080 3078 3076 3074 3072 3070 3068 3066 3065 3063 3061 3060 3058 3056
3122 3122 3122 3121 3120 3120 3118 3117 3116 3115 3113 3112 3110 3109 3107 3105 3103 3101 3099 3096 3094 3092 3089 3087 3084 3082 3079 3077 3075 3073 3071 3069 3066 3065 3063 3061 3059 3058 3057 3055 3054 3052
3120 3120 3120 3119 3118 3117 3116 3115 3114 3112 3111 3109 3108 3106 3104 3102 3100 3098 3095 3093 3091 3088 3086 3083 3081 3078 3076 3073 3071 3068 3066 3064 3061 3059 3057 3056 3054 3052 3051 3050 3049 3048
3119 3118 3118 3117 3116 3115 3114 3112 3111 3110 3108 3107 3105 3103 3101 3099 3097 3095 3093 3091 3088 3086 3083 3081 3078 3076 3073 3070 3067 3065 3062 3060 3057 3055 3052 3050 3049 3047 3045 3044 3043 3043
3117 3116 3115 3114 3113 3113 3112 3110 3109 3108 3106 3104 3103 3101 3099 3097 3095 3093 3091 3089 3086 3084 3081 3079 3076 3074 3071 3068 3065 3062 3059 3057 3054 3051 3048 3046 3044 3042 3040 3039 3038 3037
3115 3114 3113 3113 3112 3111 3110 3109 3107 3106 3104 3103 3101 3099 3097 3096 3093 3091 3089 3087 3085 3083 3080 3077 3075 3072 3070 3067 3064 3061 3057 3054 3051 3048 3045 3042 3039 3037 3035 3034 3032 3031
3113 3112 3112 3111 3110 3109 3108 3107 3106 3104 3103 3102 3100 3098 3097 3095 3093 3090 3088 3086 3084 3081 3078 3076 3073 3071 3068 3065 3062 3059 3056 3053 3049 3046 3043 3040 3037 3034 3031 3029 3028 3027
3111 3111 3110 3109 3108 3108 3107 3106 3105 3104 3102 3101 3100 3098 3096 3094 3092 3090 3087 3085 3082 3080 3077 3075 3072 3069 3066 3063 3061 3057 3054 3051 3048 3045 3041 3038 3035 3032 3029 3026 3024 3023
3110 3109 3108 3108 3107 3106 3106 3105 3104 3103 3102 3100 3099 3097 3095 3093 3091 3089 3086 3084 3081 3079 3076 3074 3071 3068 3065 3062 3059 3056 3053 3050 3046 3043 3040 3036 3033 3030 3027 3024 3022 3019
3109 3108 3108 3107 3107 3106 3105 3104 3103 3102 3101 3100 3098 3096 3094 3092 3090 3087 3085 3083 3081 3078 3075 3072 3069 3066 3063 3060 3057 3054 3051 3048 3044 3041 3038 3035 3032 3029 3026 3023 3020 3017
3108 3107 3107 3107 3106 3106 3105 3104 3103 3102 3100 3099 3097 3095 3093 3091 3089 3087 3085 3083 3080 3077 3074 3071 3068 3065 3062 3059 3055 3052 3049 3046 3043 3040 3037 3034 3031 3028 3025 3022 3019 3017
3108 3107 3107 3107 3106 3106 3105 3103 3102 3101 3099 3098 3097 3095 3093 3091 3089 3087 3085 3082 3080 3077 3074 3071 3067 3064 3061 3057 3054 3051 3048 3044 3041 3038 3035 3032 3029 3026 3023 3021 3018 3015